Regional Weather Roundup
Issued by NWS

Home | Current Version | Previous Version | Text Only | Print | Product List | Glossary Off
Versions: 1 2 3 4 5 6 7 8 9 10 11 12 13 14 15 16 17 18 19 20 21 22 23 24 25 26 27 28 29 30 31 32 33 34 35 36 37 38 39 40 41 42 43 44 45 46 47 48 49 50

000
ASUS43 KLMK 030602
RWRKY
KENTUCKY REGIONAL WEATHER ROUNDUP
NATIONAL WEATHER SERVICE LOUISVILLE KY
100 AM EST TUE MAR 03 2015

NOTE "FAIR" INDICATES FEW OR NO CLOUDS BELOW 12,000 FEET
WITH NO SIGNIFICANT WEATHER AND/OR OBSTRUCTIONS TO VISIBILITY.

KYZ001>023-026-027-061>063-070>075-030700-
WESTERN AND SOUTH CENTRAL KENTUCKY

CITY           SKY/WX    TMP DP  RH WIND       PRES   REMARKS
PADUCAH        CLOUDY    36  25  64 E3        30.21F
HENDERSON      CLOUDY    34  21  60 E3        30.23F
OWENSBORO      CLOUDY    35  22  59 SE6       30.24F WCI  30
HOPKINSVILLE   CLOUDY    39  26  61 E3        30.21F
BOWLING GREEN  CLOUDY    37  24  59 E6        30.23F WCI  32
GLASGOW        NOT AVBL
$$

KYZ024-025-028>034-038-045-046-053-030700-
NORTH CENTRAL KENTUCKY

CITY           SKY/WX    TMP DP  RH WIND       PRES   REMARKS
LOUISVILLE/SDF CLOUDY    32  18  56 SE5       30.26F WCI  27
LOUISVILLE/LOU FAIR      31  17  56 E3        30.26F
FORT KNOX      FAIR      30  19  63 E6        30.21F WCI  24
$$

KYZ035>037-039>044-047>052-055>060-089>105-030700-
NORTHEAST KENTUCKY

CITY           SKY/WX    TMP DP  RH WIND       PRES   REMARKS
LEXINGTON      FAIR      27  19  72 E7        30.25F WCI  19
COVINGTON      CLOUDY    27  15  61 E7        30.25F WCI  19
FRANKFORT      FAIR      27  17  66 E7        30.24F WCI  19
$$

KYZ054-064>069-076>088-106>120-030700-
SOUTHEAST KENTUCKY

CITY           SKY/WX    TMP DP  RH WIND       PRES   REMARKS
JACKSON        FAIR      31  18  58 NE5       30.23F WCI  26
LONDON         FAIR      33  20  58 CALM      30.22F
SOMERSET       NOT AVBL
MIDDLESBORO    CLOUDY    33  32  95 CALM      30.25F
MONTICELLO     MOCLDY    35  28  76 CALM      30.25F
$$



USA.gov is the U.S. government's official web portal to all federal, state and local government web resources and services.